Regional Weather Roundup
Issued by NWS

Home | Current Version | Previous Version | Text Only | Print | Product List | Glossary On
Versions: 1 2 3 4 5 6 7 8 9 10 11 12 13 14 15 16 17 18 19 20 21 22 23 24 25 26 27 28 29 30 31 32 33 34 35 36 37 38 39 40 41 42 43 44 45 46 47 48 49 50
000
ASUS43 KLSX 041807
RWRMO

WEATHER SUMMARY FOR MISSOURI
NATIONAL WEATHER SERVICE SPRINGFIELD MO
100 PM CDT FRI SEP 04 2015

NOTE: "FAIR" INDICATES FEW OR NO CLOUDS BELOW 12,000 FEET WITH NO
       SIGNIFICANT WEATHER AND/OR OBSTRUCTIONS TO VISIBILITY.
       CURRENT SKY AND/OR WEATHER CONDITIONS ARE NOT AVAILABLE FOR
       CHILLICOTHE AND FARMINGTON.

MOZ001>031-035>038-043-044-053-054-041900-
...NORTHERN AND WESTERN MISSOURI...

CITY           SKY/WX    TMP DP  RH WIND       PRES   REMARKS
KANSAS CTY INT MOSUNNY   91  68  46 S14       29.98F HX  95
6HR MIN TEMP:  71; 6HR MAX TEMP:  91;

KANSAS C DTWN  SUNNY     92  68  45 SW12G21   29.96F HX  96
6HR MIN TEMP:  76; 6HR MAX TEMP:  92;

LEE`S SUMMIT   SUNNY     89  68  49 SW10      30.00F HX  93
6HR MIN TEMP:  73; 6HR MAX TEMP:  89;

ST JOSEPH      SUNNY     88  70  55 S15       29.95F HX  93
6HR MIN TEMP:  68; 6HR MAX TEMP:  88;

CHILLICOTHE      N/A     91  69  48 SW8       29.99F HX  96
6HR MIN TEMP:  69; 6HR MAX TEMP:  91;

KIRKSVILLE     SUNNY     91  66  43 SW6       30.02F HX  93
6HR MIN TEMP:  68; 6HR MAX TEMP:  91;


$$
MOZ066>068-077>081-088>096-101>105-041900-
...SOUTHWEST MISSOURI...

CITY           SKY/WX    TMP DP  RH WIND       PRES   REMARKS
SPRINGFIELD    MOSUNNY   88  66  48 SW14      30.04F HX  90
6HR MIN TEMP:  71; 6HR MAX TEMP:  88;

JOPLIN         MOSUNNY   87  69  54 SW13      30.03F HX  91
6HR MIN TEMP:  71; 6HR MAX TEMP:  88;


$$
MOZ032>034-039>042-045>050-055>058-069>072-041900-
...CENTRAL MISSOURI...

CITY           SKY/WX    TMP DP  RH WIND       PRES   REMARKS
COLUMBIA       SUNNY     89  71  55 S6        30.03F HX  95
6HR MIN TEMP:  70; 6HR MAX TEMP:  89;

JEFFERSON CITY MOSUNNY   89  67  47 S6        30.00F HX  92
6HR MIN TEMP:  69; 6HR MAX TEMP:  90;

ROLLA          MOSUNNY   91  67  44 S7        30.04F HX  94
6HR MIN TEMP:  70; 6HR MAX TEMP:  91;

SEDALIA        SUNNY     93  67  42 S14       30.02F HX  96
6HR MIN TEMP:  70; 6HR MAX TEMP:  93;

WHITEMAN AFB   SUNNY     91  67  44 W9        29.99F HX  94
WARRENSBURG    SUNNY     90  64  43 S9G16     30.00F HX  91
OSAGE BEACH    MOSUNNY   91  66  43 W5        30.03F HX  94

$$
MOZ051-052-059>065-041900-
...EAST CENTRAL MISSOURI...

CITY           SKY/WX    TMP DP  RH WIND       PRES   REMARKS
ST LOUIS INTL  MOSUNNY   93  69  45 W9        30.03F HX  98
6HR MIN TEMP:  78; 6HR MAX TEMP:  94;

SPIRIT OF STL  PTSUNNY   89  71  55 S6        30.01F HX  95
6HR MIN TEMP:  67; 6HR MAX TEMP:  91; 6HR PCP:  0.01;

ST CHARLES     MOSUNNY   91  69  48 SW8       30.01F HX  96
6HR MIN TEMP:  69; 6HR MAX TEMP:  91;


$$
MOZ072>076-082>087-097>100-106>115-041900-
...SOUTH CENTRAL AND SOUTHEAST MISSOURI...

CITY           SKY/WX    TMP DP  RH WIND       PRES   REMARKS
CAPE GIRARDEAU MOSUNNY   91  70  49 CALM      30.03F HX  96
6HR MIN TEMP:  67; 6HR MAX TEMP:  91;

FARMINGTON     PTSUNNY   88  70  55 S8        30.08S HX  92
6HR MIN TEMP:  66; 6HR MAX TEMP:  90;

POPLAR BLUFF   MOSUNNY   89  70  53 S6        30.02F HX  94
6HR MIN TEMP:  67; 6HR MAX TEMP:  90;

WEST PLAINS    PTSUNNY   85  67  54 SW3       30.08F
6HR MIN TEMP:  66; 6HR MAX TEMP:  87;


$$



USA.gov is the U.S. government's official web portal to all federal, state and local government web resources and services.